Year,Month,Day,Hour,Minute,Value (Times are PST for temperature in C)
2014,10,17,12,08,14.00
2014,10,17,12,09,14.00
2014,10,17,12,10,14.00
2014,10,17,12,11,14.00
2014,10,17,12,12,14.00
2014,10,17,12,13,14.00
2014,10,17,12,14,14.00
2014,10,17,12,15,14.00
2014,10,17,12,16,14.00
2014,10,17,12,17,14.00
2014,10,17,12,18,14.00
2014,10,17,12,19,14.00
2014,10,17,12,20,14.00
2014,10,17,12,21,14.00
2014,10,17,12,22,14.00
2014,10,17,12,23,14.10
2014,10,17,12,24,14.10
2014,10,17,12,25,14.10
2014,10,17,12,26,14.10
2014,10,17,12,27,14.10
2014,10,17,12,28,14.20
2014,10,17,12,29,14.20
2014,10,17,12,30,14.20
2014,10,17,12,31,14.20
2014,10,17,12,32,14.20
2014,10,17,12,33,14.20
2014,10,17,12,34,14.30
2014,10,17,12,35,14.30
2014,10,17,12,36,14.30
2014,10,17,12,37,14.30
2014,10,17,12,38,14.40
2014,10,17,12,39,14.40
2014,10,17,12,40,14.40
2014,10,17,12,41,14.50
2014,10,17,12,42,14.50
2014,10,17,12,43,14.50
2014,10,17,12,44,14.50
2014,10,17,12,45,14.50
2014,10,17,12,46,14.50
2014,10,17,12,47,14.50
2014,10,17,12,48,14.50
2014,10,17,12,49,14.50
2014,10,17,12,50,14.50
2014,10,17,12,51,14.50
2014,10,17,12,52,14.50
2014,10,17,12,53,14.50
2014,10,17,12,54,14.50
2014,10,17,12,55,14.50
2014,10,17,12,56,14.50
2014,10,17,12,57,14.50
2014,10,17,12,58,14.50
2014,10,17,12,59,14.50
2014,10,17,13,00,14.50
2014,10,17,13,01,14.60
2014,10,17,13,02,14.70
2014,10,17,13,03,14.70
2014,10,17,13,04,14.80
2014,10,17,13,05,14.80
2014,10,17,13,06,14.90
2014,10,17,13,07,14.90
2014,10,17,13,08,15.00
2014,10,17,13,09,15.00
2014,10,17,13,10,15.00
2014,10,17,13,11,15.00
2014,10,17,13,12,15.00
2014,10,17,13,13,15.00
2014,10,17,13,14,15.00
2014,10,17,13,15,15.00
2014,10,17,13,16,15.00
2014,10,17,13,17,15.00
2014,10,17,13,18,15.00
2014,10,17,13,19,15.10
2014,10,17,13,20,15.10
2014,10,17,13,21,15.10
2014,10,17,13,22,15.10
2014,10,17,13,23,15.10
2014,10,17,13,24,15.10
2014,10,17,13,25,15.10
2014,10,17,13,26,15.00
2014,10,17,13,27,15.00
2014,10,17,13,28,15.00
2014,10,17,13,29,15.00
2014,10,17,13,30,15.00
2014,10,17,13,31,15.00
2014,10,17,13,32,15.00
2014,10,17,13,33,15.00
2014,10,17,13,34,15.00
2014,10,17,13,35,15.00
2014,10,17,13,36,15.00
2014,10,17,13,37,15.00
2014,10,17,13,38,14.90
2014,10,17,13,39,14.90
2014,10,17,13,40,14.90
2014,10,17,13,41,14.90
2014,10,17,13,42,14.90
2014,10,17,13,43,14.90
2014,10,17,13,44,14.80
2014,10,17,13,45,14.80
2014,10,17,13,46,14.80
2014,10,17,13,47,14.80
2014,10,17,13,48,14.90
2014,10,17,13,49,14.90
2014,10,17,13,50,14.90
2014,10,17,13,51,14.90
2014,10,17,13,52,14.90
2014,10,17,13,53,14.90
2014,10,17,13,54,14.90
2014,10,17,13,55,14.90
2014,10,17,13,56,14.90
2014,10,17,13,57,14.90
2014,10,17,13,58,14.90
2014,10,17,13,59,15.00
2014,10,17,14,00,15.00
2014,10,17,14,01,15.00
2014,10,17,14,02,15.00
2014,10,17,14,03,15.00
2014,10,17,14,04,15.00
2014,10,17,14,05,15.00
2014,10,17,14,06,15.00
2014,10,17,14,07,15.00
2014,10,17,14,08,14.90
2014,10,17,14,09,14.90
2014,10,17,14,10,14.90
2014,10,17,14,11,14.90
2014,10,17,14,12,14.80
2014,10,17,14,13,14.80
2014,10,17,14,14,14.80
2014,10,17,14,15,14.80
2014,10,17,14,16,14.80
2014,10,17,14,17,14.80
2014,10,17,14,18,14.80
2014,10,17,14,19,14.80
2014,10,17,14,20,14.80
2014,10,17,14,21,14.80
2014,10,17,14,22,14.80
2014,10,17,14,23,14.80
2014,10,17,14,24,14.80
2014,10,17,14,25,14.70
2014,10,17,14,26,14.70
2014,10,17,14,27,14.70
2014,10,17,14,28,14.70
2014,10,17,14,29,14.70
2014,10,17,14,30,14.60
2014,10,17,14,31,14.60
2014,10,17,14,32,14.60
2014,10,17,14,33,14.60
2014,10,17,14,34,14.60
2014,10,17,14,35,14.60
2014,10,17,14,36,14.60
2014,10,17,14,37,14.60
2014,10,17,14,38,14.60
2014,10,17,14,39,14.60
2014,10,17,14,40,14.50
2014,10,17,14,41,14.50
2014,10,17,14,42,14.50
2014,10,17,14,43,14.50
2014,10,17,14,44,14.50
2014,10,17,14,45,14.50
2014,10,17,14,46,14.50
2014,10,17,14,47,14.50
2014,10,17,14,48,14.50
2014,10,17,14,49,14.50
2014,10,17,14,50,14.50
2014,10,17,14,51,14.50
2014,10,17,14,52,14.50
2014,10,17,14,53,14.50
2014,10,17,14,54,14.50
2014,10,17,14,55,14.50
2014,10,17,14,56,14.50
2014,10,17,14,57,14.50
2014,10,17,14,58,14.50
2014,10,17,14,59,14.50
2014,10,17,15,00,14.60
2014,10,17,15,01,14.60
2014,10,17,15,02,14.60
2014,10,17,15,03,14.60
2014,10,17,15,04,14.60
2014,10,17,15,05,14.60
2014,10,17,15,06,14.70
2014,10,17,15,07,14.70
2014,10,17,15,08,14.70
2014,10,17,15,09,14.80
2014,10,17,15,10,14.80
2014,10,17,15,11,14.80
2014,10,17,15,12,14.80
2014,10,17,15,13,14.90
2014,10,17,15,14,14.90
2014,10,17,15,15,14.90
2014,10,17,15,16,14.90
2014,10,17,15,17,15.00
2014,10,17,15,18,15.00
2014,10,17,15,19,15.00
2014,10,17,15,20,15.00
2014,10,17,15,21,15.00
2014,10,17,15,22,15.00
2014,10,17,15,23,15.00
2014,10,17,15,24,15.00
2014,10,17,15,25,14.90
2014,10,17,15,26,14.90
2014,10,17,15,27,14.90
2014,10,17,15,28,14.80
2014,10,17,15,29,14.80
2014,10,17,15,30,14.80
2014,10,17,15,31,14.80
2014,10,17,15,32,14.80
2014,10,17,15,33,14.80
2014,10,17,15,34,14.80
2014,10,17,15,35,14.70
2014,10,17,15,36,14.70
2014,10,17,15,37,14.70
2014,10,17,15,38,14.70
2014,10,17,15,39,14.70
2014,10,17,15,40,14.60
2014,10,17,15,41,14.60
2014,10,17,15,42,14.60
2014,10,17,15,43,14.60
2014,10,17,15,44,14.60
2014,10,17,15,45,14.60
2014,10,17,15,46,14.60
2014,10,17,15,47,14.60
2014,10,17,15,48,14.60
2014,10,17,15,49,14.50
2014,10,17,15,50,14.50
2014,10,17,15,51,14.50
2014,10,17,15,52,14.50
2014,10,17,15,53,14.50
2014,10,17,15,54,14.60
2014,10,17,15,55,14.60
2014,10,17,15,56,14.60
2014,10,17,15,57,14.60
2014,10,17,15,58,14.60
2014,10,17,15,59,14.70
2014,10,17,16,00,14.70
2014,10,17,16,01,14.60
2014,10,17,16,02,14.60
2014,10,17,16,03,14.60
2014,10,17,16,04,14.60
2014,10,17,16,05,14.60
2014,10,17,16,06,14.60
2014,10,17,16,07,14.60
2014,10,17,16,08,14.60
2014,10,17,16,09,14.60
2014,10,17,16,10,14.50
2014,10,17,16,11,14.50
2014,10,17,16,12,14.50
2014,10,17,16,13,14.50
2014,10,17,16,14,14.50
2014,10,17,16,15,14.50
2014,10,17,16,16,14.40
2014,10,17,16,17,14.40
2014,10,17,16,18,14.40
2014,10,17,16,19,14.40
2014,10,17,16,20,14.40
2014,10,17,16,21,14.40
2014,10,17,16,22,14.30
2014,10,17,16,23,14.30
2014,10,17,16,24,14.30
2014,10,17,16,25,14.40
2014,10,17,16,26,14.40
2014,10,17,16,27,14.40
2014,10,17,16,28,14.30
2014,10,17,16,29,14.40
2014,10,17,16,30,14.40
2014,10,17,16,31,14.40
2014,10,17,16,32,14.40
2014,10,17,16,33,14.40
2014,10,17,16,34,14.40
2014,10,17,16,35,14.40
2014,10,17,16,36,14.50
2014,10,17,16,37,14.50
2014,10,17,16,38,14.50
2014,10,17,16,39,14.50
2014,10,17,16,40,14.50
2014,10,17,16,41,14.50
2014,10,17,16,42,14.50
2014,10,17,16,43,14.50
2014,10,17,16,44,14.50
2014,10,17,16,45,14.50
2014,10,17,16,46,14.50
2014,10,17,16,47,14.50
2014,10,17,16,48,14.50
2014,10,17,16,49,14.40
2014,10,17,16,50,14.40
2014,10,17,16,51,14.40
2014,10,17,16,52,14.40
2014,10,17,16,53,14.40
2014,10,17,16,54,14.40
2014,10,17,16,55,14.30
2014,10,17,16,56,14.30
2014,10,17,16,57,14.30
2014,10,17,16,58,14.30
2014,10,17,16,59,14.20
2014,10,17,17,00,14.20
2014,10,17,17,01,14.20
2014,10,17,17,02,14.20
2014,10,17,17,03,14.20
2014,10,17,17,04,14.20
2014,10,17,17,05,14.20
2014,10,17,17,06,14.20
2014,10,17,17,07,14.20
2014,10,17,17,08,14.20
2014,10,17,17,09,14.20
2014,10,17,17,10,14.20
2014,10,17,17,11,14.20
2014,10,17,17,12,14.20
2014,10,17,17,13,14.20
2014,10,17,17,14,14.20
2014,10,17,17,15,14.20
